Time,TemperatureF,DewpointF,PressureIn,WindDirection,WindDirectionDegrees,WindSpeedMPH,WindSpeedGustMPH,Humidity,HourlyPrecipIn,Conditions,Clouds,dailyrainin,SoftwareType,DateUTC
2013-01-16 00:08:00,32.0,31.0,30.47,NE,54,0.0,0.0,94,0.00,,,0.00,weatherlink.com 1.10,2013-01-16 08:08:00,
2013-01-16 00:23:00,32.6,31.0,30.47,East,100,0.0,0.0,95,0.00,,,0.00,weatherlink.com 1.10,2013-01-16 08:23:00,
2013-01-16 00:38:00,32.0,30.0,30.47,North,356,0.0,0.0,93,0.00,,,0.00,weatherlink.com 1.10,2013-01-16 08:38:00,
2013-01-16 00:53:00,32.0,31.0,30.48,East,100,0.0,0.0,95,0.00,,,0.00,weatherlink.com 1.10,2013-01-16 08:53:00,
2013-01-16 01:08:00,31.8,31.0,30.48,SE,134,0.0,0.0,95,0.00,,,0.00,weatherlink.com 1.10,2013-01-16 09:08:00,
2013-01-16 01:23:00,32.0,31.0,30.48,East,99,0.0,0.0,95,0.00,,,0.00,weatherlink.com 1.10,2013-01-16 09:23:00,
2013-01-16 01:38:00,32.2,31.0,30.48,East,84,1.0,2.0,95,0.00,,,0.00,weatherlink.com 1.10,2013-01-16 09:38:00,
2013-01-16 01:53:00,33.1,32.0,30.48,East,91,0.0,2.0,94,0.00,,,0.00,weatherlink.com 1.10,2013-01-16 09:53:00,
2013-01-16 02:08:00,33.4,31.0,30.48,ESE,107,0.0,1.0,92,0.00,,,0.00,weatherlink.com 1.10,2013-01-16 10:08:00,
2013-01-16 02:23:00,33.1,31.0,30.48,East,99,0.0,0.0,93,0.00,,,0.00,weatherlink.com 1.10,2013-01-16 10:23:00,
2013-01-16 02:39:00,32.6,31.0,30.48,East,99,0.0,0.0,93,0.00,,,0.00,weatherlink.com 1.10,2013-01-16 10:39:00,
2013-01-16 02:54:00,32.5,31.0,30.48,East,91,0.0,0.0,94,0.00,,,0.00,weatherlink.com 1.10,2013-01-16 10:54:00,
2013-01-16 03:09:00,32.9,31.0,30.48,East,90,0.0,0.0,93,0.00,,,0.00,weatherlink.com 1.10,2013-01-16 11:09:00,
2013-01-16 03:24:00,32.2,30.0,30.48,ESE,111,0.0,0.0,92,0.00,,,0.00,weatherlink.com 1.10,2013-01-16 11:24:00,
2013-01-16 03:39:00,32.5,31.0,30.48,East,98,0.0,0.0,93,0.00,,,0.00,weatherlink.com 1.10,2013-01-16 11:39:00,
2013-01-16 03:54:00,32.2,30.0,30.48,East,99,0.0,0.0,93,0.00,,,0.00,weatherlink.com 1.10,2013-01-16 11:54:00,
2013-01-16 04:09:00,32.0,31.0,30.48,East,94,0.0,0.0,94,0.00,,,0.00,weatherlink.com 1.10,2013-01-16 12:09:00,
2013-01-16 04:24:00,31.7,30.0,30.47,East,89,0.0,0.0,94,0.00,,,0.00,weatherlink.com 1.10,2013-01-16 12:24:00,
2013-01-16 04:39:00,31.7,30.0,30.47,East,97,0.0,0.0,94,0.00,,,0.00,weatherlink.com 1.10,2013-01-16 12:39:00,
2013-01-16 04:54:00,31.3,30.0,30.46,East,94,0.0,0.0,93,0.00,,,0.00,weatherlink.com 1.10,2013-01-16 12:54:00,
2013-01-16 05:09:00,30.5,29.0,30.46,SSE,162,0.0,0.0,94,0.00,,,0.00,weatherlink.com 1.10,2013-01-16 13:09:00,
2013-01-16 05:24:00,29.8,28.0,30.45,ENE,77,0.0,0.0,94,0.00,,,0.00,weatherlink.com 1.10,2013-01-16 13:24:00,
2013-01-16 05:39:00,29.4,28.0,30.45,NE,48,0.0,0.0,95,0.00,,,0.00,weatherlink.com 1.10,2013-01-16 13:39:00,
2013-01-16 05:54:00,31.5,31.0,30.45,SE,124,0.0,3.0,96,0.00,,,0.00,weatherlink.com 1.10,2013-01-16 13:54:00,
2013-01-16 06:09:00,30.6,29.0,30.46,ESE,121,0.0,0.0,95,0.00,,,0.00,weatherlink.com 1.10,2013-01-16 14:09:00,
2013-01-16 06:24:00,30.5,29.0,30.45,ESE,120,0.0,0.0,95,0.00,,,0.00,weatherlink.com 1.10,2013-01-16 14:24:00,
2013-01-16 06:39:00,30.3,29.0,30.45,ESE,107,0.0,0.0,95,0.00,,,0.00,weatherlink.com 1.10,2013-01-16 14:39:00,
2013-01-16 06:54:00,29.4,28.0,30.45,ENE,58,0.0,0.0,94,0.00,,,0.00,weatherlink.com 1.10,2013-01-16 14:54:00,
2013-01-16 07:09:00,29.3,28.0,30.45,ENE,58,0.0,0.0,96,0.00,,,0.00,weatherlink.com 1.10,2013-01-16 15:09:00,
2013-01-16 07:24:00,29.6,29.0,30.46,ENE,60,0.0,0.0,96,0.00,,,0.00,weatherlink.com 1.10,2013-01-16 15:24:00,
2013-01-16 07:39:00,29.6,28.0,30.46,NW,308,0.0,0.0,95,0.00,,,0.00,weatherlink.com 1.10,2013-01-16 15:39:00,
2013-01-16 07:54:00,30.1,29.0,30.46,ESE,103,0.0,0.0,96,0.00,,,0.00,weatherlink.com 1.10,2013-01-16 15:54:00,
2013-01-16 08:09:00,30.6,30.0,30.47,WNW,288,0.0,0.0,97,0.00,,,0.00,weatherlink.com 1.10,2013-01-16 16:09:00,
2013-01-16 08:24:00,31.4,31.0,30.47,SSE,166,0.0,0.0,97,0.00,,,0.00,weatherlink.com 1.10,2013-01-16 16:24:00,
2013-01-16 08:39:00,32.4,31.0,30.47,East,96,0.0,0.0,96,0.00,,,0.00,weatherlink.com 1.10,2013-01-16 16:39:00,
2013-01-16 09:09:00,35.4,34.0,30.47,East,101,0.0,0.0,94,0.00,,,0.00,weatherlink.com 1.10,2013-01-16 17:09:00,
2013-01-16 09:24:00,36.8,35.0,30.48,SSE,148,2.0,3.0,93,0.00,,,0.00,weatherlink.com 1.10,2013-01-16 17:24:00,
2013-01-16 09:39:00,38.3,36.0,30.47,ESE,108,0.0,3.0,92,0.00,,,0.00,weatherlink.com 1.10,2013-01-16 17:39:00,
2013-01-16 09:54:00,40.1,38.0,30.46,SE,132,3.0,5.0,91,0.00,,,0.00,weatherlink.com 1.10,2013-01-16 17:54:00,
2013-01-16 10:09:00,42.3,38.0,30.46,East,89,0.0,2.0,86,0.00,,,0.00,weatherlink.com 1.10,2013-01-16 18:09:00,
2013-01-16 10:25:00,45.2,41.0,30.45,SW,222,0.0,4.0,84,0.00,,,0.00,weatherlink.com 1.10,2013-01-16 18:25:00,
2013-01-16 10:40:00,47.8,42.0,30.44,SW,218,1.0,3.0,79,0.00,,,0.00,weatherlink.com 1.10,2013-01-16 18:40:00,
2013-01-16 10:55:00,49.0,40.0,30.43,SE,146,6.0,7.0,72,0.01,,,0.01,weatherlink.com 1.10,2013-01-16 18:55:00,
2013-01-16 11:10:00,49.7,40.0,30.43,SSE,158,5.0,8.0,70,0.01,,,0.01,weatherlink.com 1.10,2013-01-16 19:10:00,
2013-01-16 11:25:00,50.6,41.0,30.41,SSE,160,7.0,8.0,69,0.01,,,0.01,weatherlink.com 1.10,2013-01-16 19:25:00,
2013-01-16 11:40:00,51.2,41.0,30.40,SSE,152,5.0,8.0,67,0.01,,,0.01,weatherlink.com 1.10,2013-01-16 19:40:00,
2013-01-16 11:55:00,52.8,41.0,30.39,SSW,197,4.0,8.0,64,0.00,,,0.01,weatherlink.com 1.10,2013-01-16 19:55:00,
2013-01-16 12:10:00,53.1,42.0,30.38,ESE,122,4.0,7.0,65,0.00,,,0.01,weatherlink.com 1.10,2013-01-16 20:10:00,
2013-01-16 12:25:00,54.1,42.0,30.36,SSE,156,2.0,8.0,65,0.00,,,0.01,weatherlink.com 1.10,2013-01-16 20:25:00,
2013-01-16 12:40:00,56.1,41.0,30.35,SE,131,4.0,9.0,57,0.00,,,0.01,weatherlink.com 1.10,2013-01-16 20:40:00,
2013-01-16 12:55:00,55.9,41.0,30.35,SSW,192,3.0,7.0,58,0.00,,,0.01,weatherlink.com 1.10,2013-01-16 20:55:00,
2013-01-16 13:10:00,56.7,40.0,30.34,South,170,8.0,9.0,54,0.00,,,0.01,weatherlink.com 1.10,2013-01-16 21:10:00,
2013-01-16 13:25:00,58.2,39.0,30.33,SSE,149,6.0,9.0,50,0.00,,,0.01,weatherlink.com 1.10,2013-01-16 21:25:00,
2013-01-16 13:40:00,56.4,41.0,30.32,WSW,248,8.0,9.0,56,0.00,,,0.01,weatherlink.com 1.10,2013-01-16 21:40:00,
2013-01-16 13:55:00,56.7,40.0,30.32,SW,232,5.0,8.0,55,0.00,,,0.01,weatherlink.com 1.10,2013-01-16 21:55:00,
2013-01-16 14:26:00,56.7,43.0,30.32,West,279,5.0,7.0,60,0.00,,,0.01,weatherlink.com 1.10,2013-01-16 22:26:00,
2013-01-16 14:41:00,56.9,44.0,30.31,WNW,285,6.0,7.0,63,0.00,,,0.01,weatherlink.com 1.10,2013-01-16 22:41:00,
2013-01-16 14:56:00,56.9,44.0,30.31,West,281,6.0,8.0,62,0.00,,,0.01,weatherlink.com 1.10,2013-01-16 22:56:00,
2013-01-16 15:11:00,56.9,45.0,30.31,WNW,293,6.0,7.0,64,0.00,,,0.01,weatherlink.com 1.10,2013-01-16 23:11:00,
2013-01-16 15:26:00,56.8,44.0,30.31,WNW,287,6.0,8.0,63,0.00,,,0.01,weatherlink.com 1.10,2013-01-16 23:26:00,
2013-01-16 15:41:00,54.7,46.0,30.31,WSW,255,7.0,9.0,72,0.00,,,0.01,weatherlink.com 1.10,2013-01-16 23:41:00,
2013-01-16 15:56:00,54.0,46.0,30.31,West,276,5.0,9.0,73,0.00,,,0.01,weatherlink.com 1.10,2013-01-16 23:56:00,
2013-01-16 16:11:00,53.5,44.0,30.31,West,278,5.0,8.0,70,0.00,,,0.01,weatherlink.com 1.10,2013-01-17 00:11:00,
2013-01-16 16:26:00,52.7,43.0,30.31,WNW,297,4.0,8.0,69,0.00,,,0.01,weatherlink.com 1.10,2013-01-17 00:26:00,
2013-01-16 16:41:00,52.2,42.0,30.31,WNW,293,3.0,6.0,69,0.00,,,0.01,weatherlink.com 1.10,2013-01-17 00:41:00,
2013-01-16 16:56:00,50.7,42.0,30.30,NE,45,0.0,3.0,71,0.00,,,0.01,weatherlink.com 1.10,2013-01-17 00:56:00,
2013-01-16 17:11:00,48.9,41.0,30.30,ENE,75,0.0,0.0,75,0.00,,,0.01,weatherlink.com 1.10,2013-01-17 01:11:00,
2013-01-16 17:26:00,47.4,40.0,30.31,NE,37,0.0,0.0,76,0.00,,,0.01,weatherlink.com 1.10,2013-01-17 01:26:00,
2013-01-16 17:41:00,44.5,39.0,30.31,NE,39,2.0,2.0,80,0.00,,,0.01,weatherlink.com 1.10,2013-01-17 01:41:00,
2013-01-16 17:56:00,43.1,38.0,30.31,NE,37,2.0,2.0,83,0.00,,,0.01,weatherlink.com 1.10,2013-01-17 01:56:00,
2013-01-16 18:11:00,41.3,37.0,30.30,NE,41,1.0,2.0,86,0.00,,,0.01,weatherlink.com 1.10,2013-01-17 02:11:00,
2013-01-16 18:26:00,40.0,37.0,30.31,NE,41,2.0,2.0,88,0.00,,,0.01,weatherlink.com 1.10,2013-01-17 02:26:00,
2013-01-16 18:41:00,39.9,37.0,30.31,NE,45,2.0,2.0,88,0.00,,,0.01,weatherlink.com 1.10,2013-01-17 02:41:00,
2013-01-16 18:56:00,39.6,37.0,30.31,NE,45,1.0,2.0,89,0.00,,,0.01,weatherlink.com 1.10,2013-01-17 02:56:00,
2013-01-16 19:11:00,38.2,36.0,30.31,NE,46,0.0,2.0,90,0.00,,,0.01,weatherlink.com 1.10,2013-01-17 03:11:00,
2013-01-16 19:26:00,37.4,35.0,30.30,NE,46,0.0,0.0,91,0.00,,,0.01,weatherlink.com 1.10,2013-01-17 03:26:00,
2013-01-16 19:41:00,36.1,34.0,30.31,NE,46,0.0,0.0,91,0.00,,,0.01,weatherlink.com 1.10,2013-01-17 03:41:00,
2013-01-16 19:56:00,36.3,34.0,30.31,NE,45,0.0,0.0,92,0.00,,,0.01,weatherlink.com 1.10,2013-01-17 03:56:00,
2013-01-16 20:11:00,35.5,33.0,30.31,NE,45,0.0,0.0,92,0.00,,,0.01,weatherlink.com 1.10,2013-01-17 04:11:00,
2013-01-16 20:26:00,35.1,33.0,30.30,ENE,77,0.0,1.0,93,0.00,,,0.01,weatherlink.com 1.10,2013-01-17 04:26:00,
2013-01-16 20:41:00,35.9,34.0,30.30,ESE,103,0.0,0.0,93,0.00,,,0.01,weatherlink.com 1.10,2013-01-17 04:41:00,
2013-01-16 20:56:00,35.4,33.0,30.30,ESE,103,0.0,0.0,92,0.00,,,0.01,weatherlink.com 1.10,2013-01-17 04:56:00,
2013-01-16 21:11:00,34.7,33.0,30.30,ESE,103,0.0,0.0,92,0.00,,,0.01,weatherlink.com 1.10,2013-01-17 05:11:00,
2013-01-16 21:26:00,35.5,34.0,30.30,SE,127,0.0,0.0,94,0.00,,,0.01,weatherlink.com 1.10,2013-01-17 05:26:00,
2013-01-16 21:41:00,35.5,34.0,30.30,SE,131,0.0,0.0,93,0.00,,,0.01,weatherlink.com 1.10,2013-01-17 05:41:00,
2013-01-16 21:56:00,34.4,32.0,30.30,ESE,115,0.0,0.0,91,0.00,,,0.01,weatherlink.com 1.10,2013-01-17 05:56:00,
2013-01-16 22:11:00,33.7,32.0,30.30,ENE,72,0.0,0.0,93,0.00,,,0.01,weatherlink.com 1.10,2013-01-17 06:11:00,
2013-01-16 22:26:00,33.5,32.0,30.30,East,86,0.0,0.0,93,0.00,,,0.01,weatherlink.com 1.10,2013-01-17 06:26:00,
2013-01-16 22:41:00,33.1,31.0,30.30,ENE,70,0.0,0.0,93,0.00,,,0.01,weatherlink.com 1.10,2013-01-17 06:41:00,
2013-01-16 22:56:00,32.1,30.0,30.30,ENE,65,0.0,0.0,93,0.00,,,0.01,weatherlink.com 1.10,2013-01-17 06:56:00,
2013-01-16 23:11:00,31.5,30.0,30.30,NE,56,0.0,0.0,94,0.00,,,0.01,weatherlink.com 1.10,2013-01-17 07:11:00,
2013-01-16 23:26:00,31.6,30.0,30.30,ENE,57,0.0,0.0,95,0.00,,,0.01,weatherlink.com 1.10,2013-01-17 07:26:00,
2013-01-16 23:41:00,31.3,30.0,30.30,NE,53,0.0,0.0,95,0.00,,,0.01,weatherlink.com 1.10,2013-01-17 07:41:00,
2013-01-16 23:56:00,31.3,30.0,30.30,NE,53,0.0,0.0,95,0.00,,,0.01,weatherlink.com 1.10,2013-01-17 07:56:00,